Погода в Сурске

Россия / Пензенская область     53°04′33″N   45°41′27″E
темп.,
°C
ветер,
м/с
пор.,
м/с
влажн.,
%
обл.,
%
осадки,
мм/ч
давл.,
гПа
погр.,
м
5 марта, пт
пт500:00−1зюз51096100 0.3 1001525
03:00−1зюз61294100 0.5 1001623
06:00−2зюз61296100 0.3 1000631
09:00−2зсз61094100 0.7 1002715
12:00−1ссз568797 0.2 1005823
15:00−2сз688492 0.4 1008917
18:00−7зсз34912 0.0 101134
21:00−10з34932 0.0 101436
6 марта, сб
сб600:00−11зюз349630 0.0 101567
03:00−12з339754 0.0 101642
06:00−13з239793 0.0 101721
09:00−10сз129396 0.0 1017132
12:00−6с2283100 0.0 1017336
15:00−5ссв1273100 0.0 1015598
18:00−9с1285100 0.0 101521
21:00−13с119183 0.0 101521
7 марта, вс
вс700:00−14сз129083 0.0 101420
03:00−14з239178 0.0 101521
06:00−12зюз379676 0.1 1015160
09:00−10зюз489688 0.1 1014287
12:00−7зюз7118790 0.0 1012802
15:00−6юз8128796 0.1 1010838
18:00−6ююз81588100 0.1 10061040
21:00−5юз101793100 0.9 10021210
8 марта, пн
пн800:00−4юз101892100 1.2 9991106
03:00−10з7158399 1.5 1002497
06:00−13юз512870 0.0 1004227
09:00−8юз714770 0.0 1003619
12:00−4юз7128132 0.0 1001938
15:00−3юз8128458 0.3 9991368
18:00−8з8147968 0.5 1001910
21:00−11з8168765 0.5 1005685
9 марта, вт
вт900:00−11з71492100 0.1 1008642
03:00−12з61294100 0.2 1009457
06:00−16зюз499799 0.0 1012163
09:00−13з469596 0.1 1013281
12:00−9з4588100 0.0 1013644
15:00−9з4586100 0.1 1013726
18:00−12зсз3494100 0.0 101373
21:00−16ссз339698 0.1 101552